Regional Weather Roundup
Issued by NWS

Home | Current Version | Previous Version | Graphics & Text | Print | Product List | Glossary On
Versions: 1 2 3 4 5 6 7 8 9 10 11 12 13 14 15 16 17 18 19 20 21 22 23 24 25 26 27 28 29 30 31 32 33 34 35 36 37 38 39 40 41 42 43 44 45 46 47 48 49 50
000
ASUS43 KMPX 191710
RWRMN
WEATHER ROUNDUP FOR MINNESOTA
NATIONAL WEATHER SERVICE TWIN CITIES/CHANHASSEN MN
1200 PM CDT TUE SEP 19 2017


NOTE: "FAIR" INDICATES FEW OR NO CLOUDS BELOW 12,000 FEET WITH NO
SIGNIFICANT WEATHER AND/OR OBSTRUCTIONS TO VISIBILITY. N/A MEANS
CURRENT SKY AND/OR WEATHER CONDITIONS ARE NOT AVAILABLE.

MNZ060>063-068>070-191800-
   Twin Cities Metro

CITY           SKY/WX    TMP DP  RH WIND       PRES   REMARKS
TWIN CITIES    PTSUNNY   72  64  76 SE12      29.88F
ST PAUL        MOSUNNY   72  64  76 SE9       29.89F
CRYSTAL        MOSUNNY   72  61  68 SE13      29.86F
BLAINE         PTSUNNY   72  64  78 SE12      29.88F
LAKEVILLE      MOSUNNY   72  64  78 SE7       29.88F
EDEN PRAIRIE   MOSUNNY   74  64  71 SE10      29.86F
SOUTH ST PAUL  SUNNY     72  63  73 SE7       29.89F
LAKE ELMO      PTSUNNY   70  63  78 E8        29.91F
$$
MNZ001>005-007-008-013>017-022>024-027-028-191800-
   Northwest Minnesota

CITY           SKY/WX    TMP DP  RH WIND       PRES   REMARKS
BEMIDJI        CLOUDY    62  59  90 SE10      29.80F
HALLOCK        CLOUDY    63  59  88 SE15      29.70F
ROSEAU         CLOUDY    61  55  82 E12G17    29.78F
WARROAD        CLOUDY    61  55  82 SE12      29.80F
THIEF RVR FALL MOSUNNY   69  59  70 SE22      29.73F
CROOKSTON      MOSUNNY   70  61  73 SE18G25   29.70F
FOSSTON        MOSUNNY   66  57  72 SE13G21   29.75F
DETROIT LAKES  CLOUDY    66  59  77 SE17G23   29.75F
MOORHEAD       CLOUDY    72  61  68 SE15G24   29.68F
PARK RAPIDS    PTSUNNY  N/A N/A N/A MISG      29.80F
MAHNOMEN       FAIR      68  59  73 SE15G23   29.72F
$$
MNZ006-009>011-018-025>026-191800-
   North Central Minnesota

CITY           SKY/WX    TMP DP  RH WIND       PRES   REMARKS
BAUDETTE       CLOUDY    60  57  89 SE13      29.82F
FLAG ISLAND    CLOUDY    57  54  88 SE8       29.82F
INTL FALLS     CLOUDY    62  57  83 SE10      29.88F
WASKISH        CLOUDY    64  61  88 SE8       29.82F
BIG FORK       CLOUDY    64  57  77 SE9       29.87F
LONGVILLE      CLOUDY    63  61  94 SE9       29.85F
GRAND RAPIDS   CLOUDY    61  59  93 SE6       29.90F
CRANE LAKE     CLOUDY    63  57  82 SE6       29.92F
ORR            CLOUDY    61  55  82 SE9       29.88F
COOK           CLOUDY    61  57  88 SE8       29.92F
WALKER         CLOUDY    60  58  94 SE7       29.82F
$$
MNZ012-019>021-037-191800-
   Northeast Minnesota

CITY           SKY/WX    TMP DP  RH WIND       PRES   REMARKS
DULUTH         CLOUDY    63  59  87 E13       29.93F
ELY            CLOUDY    63  55  77 SE8       29.95S
HIBBING        CLOUDY    62  58  86 SE9       29.91F
EVELETH        CLOUDY    63  59  88 SE7       29.93F
DULUTH HARBOR  MOSUNNY   64  59  82 NE12      29.94F
TWO HARBORS    MOSUNNY   66  59  77 E7        29.94F
GRAND MARAIS     N/A     60  56  86 E12       29.99F
G MARAIS ARPRT CLOUDY    59  48  67 E5        30.02S
$$
MNZ029>031-032-039>041-046>048-054>057-064-191800-
   West Central Minnesota

CITY           SKY/WX    TMP DP  RH WIND       PRES   REMARKS
FERGUS FALLS   MOSUNNY   70  64  83 SE16G25   29.71F
WHEATON        CLOUDY    72  63  73 SE21G31   29.71F
MORRIS         CLOUDY    70  64  83 SE23G30   29.73F
ALEXANDRIA     PTSUNNY   68  62  81 SE22G29   29.79F
ELBOW LAKE     FAIR      69  63  79 E22G32    29.73F HAZE
WADENA         PTSUNNY   64  63  94 SE14G20   29.79F
GLENWOOD       PTSUNNY   66  63  88 SE15G28   29.80F
APPLETON       CLOUDY    72  63  73 SE20      29.73F
BENSON         CLOUDY    68  63  83 S16G23    29.78F
ORTONVILLE     CLOUDY    70  64  83 NE17G25   29.71F
MADISON        CLOUDY    73  64  73 SE17      29.73F
WILLMAR        CLOUDY    68  66  94 SE13G21   29.81F
$$
MNZ033>034-036-042>043-049>051-058-059-191800-
   Central Minnesota

CITY           SKY/WX    TMP DP  RH WIND       PRES   REMARKS
ST CLOUD       CLOUDY    70  64  81 SE9       29.85F
PAYNESVILLE    CLOUDY    65  63  92 SE13      29.83F
AITKIN           N/A    N/A N/A N/A MISG      29.87S
PINE RIVER     CLOUDY    63  57  82 SE13      29.87F
BRAINERD       CLOUDY    64  61  90 SE9       29.85F
STAPLES        CLOUDY    63  61  94 SE9       29.82F
LONG PRAIRIE   CLOUDY    63  61  94 E12       29.83F FOG
LITTLE FALLS   CLOUDY    64  61  88 SE10      29.84F FOG
LITCHFIELD     CLOUDY    66  66 100 SE10G20   29.85F
BUFFALO        MOSUNNY   71  61  70 SE12      29.87F
MAPLE LAKE     MOSUNNY   73  65  77 SE7       29.86F
HUTCHINSON     CLOUDY    70  65  86 SE12G20   29.85F
$$
MNZ037-044-045-052-053-191800-
   East Central Minnesota

CITY           SKY/WX    TMP DP  RH WIND       PRES   REMARKS
PRINCETON      PTSUNNY   73  63  68 SE12      29.87F
MORA           MOSUNNY   68  59  73 SE9       29.90F
CAMBRIDGE      SUNNY     73  61  64 SE8       29.88F
RUSH CITY      MOSUNNY   69  61  75 E3        29.90F
MOOSE LAKE     CLOUDY    66  59  77 SE8       29.89F
HINCKLEY       FAIR      72  63  73 SE8       29.90F
CLOQUET        CLOUDY    63  57  82 E7        29.92F
MCGREGOR       CLOUDY    63  61  94 SE10      29.89F
$$
MNZ071>073-080-081-089-090-097-098-191800-
   Southwest Minnesota

CITY           SKY/WX    TMP DP  RH WIND       PRES   REMARKS
MONTEVIDEO     PTSUNNY   72  64  78 S18G28    29.75F
GRANITE FALLS  CLOUDY    72  65  80 SE17G28   29.79F
CANBY          CLOUDY    71  65  80 E17       29.74F
MARSHALL       CLOUDY    71  65  81 S16G28    29.76F
REDWOOD FALLS  CLOUDY    69  64  84 SE16G25   29.79F
OLIVIA         CLOUDY    68  66  94 SE17G25   29.80F
PIPESTONE      CLOUDY    70  66  88 S12G18    29.76F FOG
WINDOM         SUNNY     72  64  78 SE14G25   29.81F
WORTHINGTON    CLOUDY    68  65  90 SE14G23   29.81F
JACKSON        CLOUDY    68  63  83 SE17G24   29.84F
TRACY          CLOUDY    71  67  87 SE16G28   29.78F
SLAYTON        CLOUDY    68  64  87 SE10G18   29.80F
$$
MNZ065>067-074>077-082>085-091>093-191800-
   South Central Minnesota

CITY           SKY/WX    TMP DP  RH WIND       PRES   REMARKS
MANKATO        CLOUDY    71  64  78 SE16      29.86F
NEW ULM        PTSUNNY   70  64  83 SE18      29.83F
ST JAMES       PTSUNNY   70  64  83 SE16G24   29.85S
FAIRMONT       CLOUDY    71  65  81 SE18G26   29.85F
GLENCOE        PTSUNNY   71  67  86 SE12G17   29.85F
FARIBAULT      CLOUDY    73  64  73 SE15      29.89S
OWATONNA       SUNNY     73  64  73 SE13G20   29.89F
WASECA         PTSUNNY   72  64  78 SE10G18   29.90S
ALBERT LEA     MOSUNNY   73  66  78 S13       29.89F
$$
MNZ078>079-086>088-094>096-191800-
   Southeast Minnesota

CITY           SKY/WX    TMP DP  RH WIND       PRES   REMARKS
ROCHESTER      MOSUNNY   71  64  78 SE14      29.92F
RED WING       SUNNY     72  61  68 SE10      29.89F
STANTON        MOSUNNY   74  64  69 S8        29.88F
DODGE CENTER   PTSUNNY   73  63  68 SE12      29.91S
WINONA         SUNNY     72  61  68 SE8       29.93F
AUSTIN         SUNNY     73  63  68 SE9       29.90F
PRESTON        MOSUNNY   71  62  74 S9        29.94F
$$
ABBREVIATIONS USED IN REMARKS
   TC - TEMPERATURES IN CELSIUS
  WCI - WIND CHILL INDEX
   HX - HEAT INDEX
  VSB - VISIBILITY
$$




USA.gov is the U.S. government's official web portal to all federal, state and local government web resources and services.